#timestamp,LO_Frequency,Hit,StdDev 
1703217615.8,286047000.4,N
1703217635.7,286046999.8,N
1703217655.5,286047000.0,N
1703217675.4,286047000.4,N
1703217695.2,286047000.8,N
1703217715.0,286046998.4,N
1703217715.9,286046998.4,N
1703217735.8,286046998.9,N
1703217755.6,286046999.5,N
1703217775.4,286046995.1,Y
1703217795.3,286046995.5,P
1703217815.1,286046997.8,N
1703217835.9,286046996.5,N
1703217855.7,286046999.1,N
1703217875.5,286046999.4,N
1703217895.4,286046998.3,N
1703217915.2,286046996.5,N
1703217935.0,286046998.2,N
1703217935.9,286046998.2,N
1703217955.8,286047001.0,N
1703217975.6,286047000.5,N
1703217995.5,286047002.9,N
1703218015.3,286047015.1,Y
1703218035.1,286047011.5,P
1703218055.9,286047009.0,N
1703218075.7,286047005.4,N
1703218095.6,286047006.0,N
1703218115.4,286047004.0,N
1703218135.2,286047003.5,N
1703218155.1,286047003.1,N
1703218156.0,286047003.1,N
1703218175.8,286047006.0,N
1703218195.7,286047005.6,N
1703218215.5,286047005.2,N
1703218235.3,286047005.1,N
1703218255.2,286047003.3,N
1703218275.0,286047001.8,N
1703218275.9,286047001.8,N
1703218295.7,286047002.0,N
1703218315.6,286047002.8,N
1703218335.4,286047002.5,N
1703218355.3,286047000.2,N
1703218375.1,286047000.8,N
1703218376.0,286047000.8,N
1703218395.8,286047000.8,N
1703218415.7,286046998.5,N
1703218435.5,286047001.2,N
1703218455.3,286047000.5,N
1703218475.2,286047000.0,N
1703218495.0,286046999.8,N
1703218495.9,286046999.8,N
1703218515.8,286047003.3,N
1703218535.6,286047008.0,N
1703218555.4,286047006.5,N
1703218575.3,286047006.3,N
1703218595.1,286047005.1,N
1703218615.9,286047003.7,N
1703218635.7,286047005.8,N
1703218655.5,286047003.4,N
1703218675.4,286047004.4,N
1703218695.2,286047004.2,N
1703218715.1,286047003.1,N
1703218716.0,286047003.1,N
1703218735.8,286047003.0,N
1703218755.6,286047001.4,N
1703218775.5,286047000.1,N
1703218795.3,286047001.2,N
1703218815.2,286047000.7,N
1703218835.9,286047000.5,N
1703218855.7,286047001.0,N
1703218875.6,286046998.1,N
1703218895.4,286046998.5,N
1703218915.2,286047000.8,N
1703218935.1,286046998.6,N
1703218936.0,286046998.6,N
1703218955.8,286046998.1,N
1703218975.7,286047001.0,N
1703218995.5,286046998.1,N
1703219015.3,286046999.9,N
1703219035.2,286047000.2,N
1703219055.0,286047002.4,N
1703219055.9,286047002.4,N
1703219075.7,286047002.1,N
1703219095.6,286047002.1,N
1703219115.4,286046999.7,N
1703219135.3,286047003.9,N
1703219155.1,286047002.4,N
1703219175.8,286047002.5,N
1703219195.7,286047001.6,N
1703219215.5,286047003.4,N
1703219235.4,286047002.0,N
1703219255.2,286047002.5,N
1703219275.0,286047000.5,N
1703219275.9,286047000.5,N
1703219295.8,286047002.4,N
1703219315.6,286047002.6,N
1703219335.4,286047001.9,N
1703219355.3,286047004.1,N
1703219375.1,286047002.2,N
1703219395.9,286046999.8,N
1703219415.7,286046999.9,N
1703219435.5,286047001.6,N
1703219455.4,286047001.6,N
1703219475.2,286047002.3,N
1703219495.0,286046999.9,N
1703219495.9,286046999.9,N
1703219515.8,286046998.7,N
1703219535.6,286046998.6,N
1703219555.5,286047000.4,N
1703219575.3,286047001.0,N
1703219595.1,286047000.0,N
1703219615.9,286047000.3,N
1703219635.7,286047000.3,N
1703219655.5,286047000.0,N
1703219675.4,286047000.0,N
1703219695.2,286047001.2,N
1703219715.1,286047000.1,N
1703219716.0,286047000.1,N
1703219735.8,286047002.8,N
1703219755.6,286047000.7,N
1703219775.5,286047004.0,Y
1703219795.3,286047000.1,P
1703219815.1,286047000.7,N
1703219835.9,286047000.2,N
1703219855.7,286047000.2,N
1703219875.6,286047002.3,Y
1703219895.4,286047002.1,P
1703219915.3,286046999.9,N
1703219935.1,286047001.1,N
1703219936.0,286047001.1,N
1703219955.8,286047000.3,N
1703219975.7,286046998.5,N
1703219995.5,286046998.7,N
1703220015.3,286047000.8,N
1703220035.2,286047000.5,N
1703220055.0,286047000.4,N
1703220055.9,286047000.4,N
1703220075.8,286046999.9,N
1703220095.6,286047000.4,N
1703220115.4,286047000.2,N
1703220135.3,286047000.0,N
1703220155.1,286047000.2,N
1703220175.8,286047001.0,N
1703220225.7,286047000.5,E
1703220235.6,286047001.1,N
1703220255.4,286047000.7,P
1703220275.3,286047001.1,P
1703220295.1,286047000.2,N
1703220315.9,286046999.9,N
1703220335.7,286047000.9,N
1703220355.5,286046998.4,Y
1703220375.4,286046999.6,P
1703220395.2,286046999.1,N
1703220415.0,286046999.0,N
1703220416.0,286046999.0,N
1703220435.8,286046999.4,N
1703220455.6,286046998.2,Y
1703220475.5,286046999.1,P
1703220495.3,286046999.2,P
1703220515.1,286046998.7,P
1703220535.9,286046998.6,Y
1703220555.7,286047000.5,P
1703220575.6,286047000.9,N
1703220595.4,286047000.3,N
1703220615.2,286047001.0,N
1703220635.1,286046999.7,N
1703220636.0,286046999.7,N
1703220655.8,286047000.2,N
1703220675.6,286046999.7,N
1703220695.5,286047000.8,N
1703220715.3,286047000.1,N
1703220735.2,286047000.1,N
1703220755.9,286047001.7,Y
1703220775.7,286047004.3,P
1703220795.6,286047003.3,N
1703220815.4,286047003.6,N
1703220835.2,286047004.3,N
1703220855.1,286047002.4,N
1703220856.0,286047002.4,N
1703220875.8,286047001.9,N
1703220895.7,286046999.7,N
1703220915.5,286047000.5,N
1703220935.3,286047002.6,N
1703220955.2,286046999.8,N
1703220975.0,286046999.8,N
1703220975.9,286046999.8,N
1703220995.8,286047000.2,N
1703221015.6,286047000.9,N
1703221035.4,286047002.6,N
1703221055.3,286047001.5,N
1703221075.1,286047002.2,N
1703221076.0,286047002.2,N
1703221095.8,286047001.6,N
1703221115.7,286046999.7,N
1703221135.5,286047000.1,N
1703221155.3,286047002.2,N
1703221175.2,286047002.2,N
1703221195.0,286047002.4,N
1703221195.9,286047002.4,N
